Terminal Aerodrome Forecast
Issued by NWS Jackson, KY

Home | Current Version | Previous Version | Text Only | Print | Product List | Glossary On
Versions: 1 2 3 4 5 6 7 8 9 10 11 12 13 14 15 16 17 18
000
FTUS43 KJKL 271100
TAFJKL
TAF
KJKL 271132Z 2712/2812 VRB03KT P6SM -SHRA BKN035 BKN090
     FM271500 24008G18KT P6SM VCTS SCT030CB BKN100
      TEMPO 2718/2722 VRB20G40KT 2SM +TSRAPL BR BKN025CB
     FM272300 27005KT P6SM VCTS SCT040CB BKN100
     FM280700 VRB03KT 4SM BR BKN020=

USA.gov is the U.S. government's official web portal to all federal, state and local government web resources and services.